OK1MKH-8 Weather Reports


Display with metric or nautical units.
time (UTC)temp
F
wind
direction
speed
MPH
gust
MPH
rain 1hr
in
rain 24hr
in
rain mn
in
humidity
%
barometer
mb
20260506062017 63 -1 5.0 10.0 0.00 0.00 0.00 7 999.1
20260506061516 61 -1 7.0 16.0 0.00 0.00 0.00 8 999.4
20260506061015 61 -1 8.0 13.0 0.00 0.00 0.00 7 999.5
20260506060515 61 -1 6.0 14.0 0.00 0.00 0.00 7 999.5
20260506051007 60 -1 5.0 11.0 0.00 0.00 0.00 8 999.7
20260506050506 61 -1 6.0 14.0 0.00 0.00 0.00 8 999.5
20260506045004 58 -1 7.0 12.0 0.00 0.00 0.00 8 1000.0
20260506044503 58 -1 6.0 12.0 0.00 0.00 0.00 8 999.7
20260506044002 58 -1 6.0 11.0 0.00 0.00 0.00 8 999.9
20260506043502 57 -1 8.0 15.0 0.00 0.00 0.00 8 1000.0
20260506043001 58 -1 7.0 17.0 0.00 0.00 0.00 8 1000.0
20260506042500 57 -1 8.0 15.0 0.00 0.00 0.00 8 1000.1
20260506042000 57 -1 8.0 16.0 0.00 0.00 0.00 8 1000.0
20260506041459 57 -1 10.0 19.0 0.00 0.00 0.00 8 1000.0
20260506040958 56 -1 7.0 16.0 0.00 0.00 0.00 8 999.9
20260506040457 56 -1 9.0 21.0 0.00 0.00 0.00 8 1000.0
20260506035957 56 -1 11.0 19.0 0.00 0.00 0.00 8 1000.0
20260506035456 55 -1 8.0 16.0 0.00 0.00 0.00 9 999.9
20260506034955 55 -1 8.0 15.0 0.00 0.00 0.00 9 1000.0
20260506034454 55 -1 9.0 15.0 0.00 0.00 0.00 9 999.9
20260506033954 55 -1 9.0 16.0 0.00 0.00 0.00 9 999.7
20260506033453 55 -1 9.0 18.0 0.00 0.00 0.00 9 999.7
20260506032952 55 -1 10.0 21.0 0.00 0.00 0.00 9 999.8
20260506032452 55 -1 7.0 14.0 0.00 0.00 0.00 9 999.9
20260506031951 55 -1 7.0 16.0 0.00 0.00 0.00 9 999.8
20260506031450 55 -1 7.0 13.0 0.00 0.00 0.00 9 999.9
20260506030950 55 -1 6.0 14.0 0.00 0.00 0.00 9 999.8
20260506030449 55 -1 5.0 11.0 0.00 0.00 0.00 9 999.9
20260506025948 56 -1 6.0 11.0 0.00 0.00 0.00 9 999.8
20260506025447 55 -1 6.0 15.0 0.00 0.00 0.00 9 999.8
20260506024947 55 -1 8.0 14.0 0.00 0.00 0.00 9 999.9
20260506024446 55 -1 6.0 12.0 0.00 0.00 0.00 9 999.9
20260506023945 56 -1 6.0 11.0 0.00 0.00 0.00 9 999.9
20260506023444 56 -1 6.0 13.0 0.00 0.00 0.00 9 999.9
20260506022944 55 -1 6.0 12.0 0.00 0.00 0.00 9 1000.0
20260506022443 56 -1 7.0 14.0 0.00 0.00 0.00 9 999.9
20260506021942 56 -1 7.0 14.0 0.00 0.00 0.00 9 1000.1
20260506021442 56 -1 7.0 15.0 0.00 0.00 0.00 9 1000.1
20260506020941 56 -1 8.0 15.0 0.00 0.00 0.00 9 1000.0
20260506020440 56 -1 5.0 14.0 0.00 0.00 0.00 9 1000.0
20260506015939 56 -1 6.0 13.0 0.00 0.00 0.00 9 1000.0
20260506015439 56 -1 6.0 14.0 0.00 0.00 0.00 9 999.9
20260506014938 56 -1 6.0 11.0 0.00 0.00 0.00 9 1000.0
20260506014437 56 -1 6.0 13.0 0.00 0.00 0.00 9 999.9
20260506013937 57 -1 5.0 10.0 0.00 0.00 0.00 9 999.7
20260506013436 56 -1 5.0 10.0 0.00 0.00 0.00 9 1000.0
20260506012935 57 -1 4.0 8.0 0.00 0.00 0.00 9 999.9
20260506012434 56 -1 5.0 10.0 0.00 0.00 0.00 9 1000.0
20260506011934 57 -1 6.0 11.0 0.00 0.00 0.00 9 999.9
20260506011433 57 -1 5.0 10.0 0.00 0.00 0.00 9 999.9
20260506010932 57 -1 6.0 11.0 0.00 0.00 0.00 9 999.9
20260506010432 57 -1 5.0 10.0 0.00 0.00 0.00 9 999.8
20260506005931 57 -1 5.0 12.0 0.00 0.00 0.00 9 999.8
20260506005430 57 -1 5.0 10.0 0.00 0.00 0.00 9 999.7
20260506004929 57 -1 6.0 12.0 0.00 0.00 0.00 9 999.8
20260506004429 57 -1 6.0 12.0 0.00 0.00 0.00 9 999.8
20260506003928 57 -1 5.0 12.0 0.00 0.00 0.00 9 999.8
20260506003427 57 -1 7.0 14.0 0.00 0.00 0.00 9 999.8
20260506002927 58 -1 4.0 13.0 0.00 0.00 0.00 9 999.7
20260506002426 57 -1 7.0 14.0 0.00 0.00 0.00 9 999.9
20260506001925 57 -1 8.0 14.0 0.00 0.00 0.00 9 1000.0
20260506001424 57 -1 8.0 13.0 0.00 0.00 0.00 9 1000.0
20260506000924 57 -1 7.0 12.0 0.00 0.00 0.00 9 999.9
20260506000423 57 -1 8.0 14.0 0.00 0.00 0.00 9 1000.1
20260505235922 57 -1 7.0 12.0 0.00 0.00 0.14 9 1000.1
20260505235422 57 -1 9.0 14.0 0.00 0.00 0.14 9 1000.1
20260505234921 57 -1 8.0 14.0 0.00 0.00 0.14 9 1000.0
20260505234420 57 -1 9.0 18.0 0.00 0.00 0.14 9 1000.0
20260505233919 57 -1 9.0 15.0 0.00 0.00 0.14 9 1000.1
20260505233419 57 -1 8.0 16.0 0.00 0.00 0.14 9 1000.0
20260505232918 57 -1 8.0 16.0 0.00 0.00 0.14 9 1000.1
20260505232417 57 -1 7.0 14.0 0.00 0.00 0.14 9 1000.1
20260505231917 57 -1 7.0 14.0 0.00 0.00 0.14 9 1000.0
20260505231416 58 -1 6.0 12.0 0.00 0.00 0.14 9 999.8
20260505230915 58 -1 3.0 7.0 0.00 0.00 0.13 9 999.7
20260505230415 58 -1 3.0 6.0 0.00 0.00 0.13 9 999.6
20260505225914 58 -1 3.0 5.0 0.00 0.00 0.13 9 999.6
20260505225413 58 -1 3.0 4.0 0.00 0.00 0.13 9 999.7
20260505224912 59 -1 3.0 4.0 0.00 0.00 0.13 9 999.7
20260505224412 59 -1 2.0 0.0 0.00 0.00 0.13 9 999.7
20260505223911 60 -1 0.0 0.0 0.00 0.00 0.13 9 999.6
20260505223410 59 -1 0.0 0.0 0.00 0.00 0.13 10 999.6
20260505222910 58 -1 0.0 0.0 0.00 0.00 0.13 10 999.7
20260505222409 58 -1 0.0 0.0 0.00 0.00 0.13 9 999.8
20260505221908 57 -1 3.0 6.0 0.00 0.00 0.13 9 1000.0
20260505221408 58 -1 3.0 4.0 0.00 0.00 0.13 9 999.9
20260505220907 58 -1 4.0 7.0 0.00 0.00 0.13 9 1000.0
20260505220406 59 -1 3.0 4.0 0.00 0.00 0.13 9 999.9
20260505215905 60 -1 0.0 0.0 0.00 0.00 0.13 10 999.7
20260505215405 59 -1 0.0 0.0 0.00 0.00 0.13 10 999.9
20260505214904 59 -1 0.0 0.0 0.00 0.00 0.13 9 999.8
20260505214403 58 -1 3.0 4.0 0.00 0.00 0.13 9 999.9
20260505213902 57 -1 4.0 4.0 0.00 0.00 0.13 10 1000.2
20260505213402 56 -1 3.0 4.0 0.00 0.00 0.13 10 1000.4
20260505212901 55 -1 3.0 4.0 0.00 0.00 0.13 9 1000.5
20260505212400 55 -1 3.0 9.0 0.00 0.00 0.13 9 1000.6
20260505211900 55 -1 7.0 16.0 0.00 0.00 0.12 10 1000.8
20260505211359 55 -1 9.0 17.0 0.00 0.00 0.11 9 1000.9
20260505210858 56 -1 5.0 13.0 0.00 0.00 0.11 10 1000.9
20260505210358 55 -1 6.0 18.0 0.00 0.00 0.10 10 1000.9
20260505205857 55 -1 8.0 18.0 0.00 0.00 0.09 9 1001.1
20260505205356 55 -1 11.0 22.0 0.00 0.00 0.08 10 1001.2
20260505204856 55 -1 11.0 21.0 0.00 0.00 0.08 9 1001.1
20260505204355 55 -1 12.0 24.0 0.00 0.00 0.07 9 1001.1
20260505203854 55 -1 14.0 25.0 0.00 0.00 0.06 9 1000.9
20260505203353 57 -1 12.0 21.0 0.00 0.00 0.05 9 1000.4
20260505202852 58 -1 12.0 23.0 0.00 0.00 0.04 9 1000.1
20260505202352 60 -1 12.0 25.0 0.00 0.00 0.03 8 999.9
20260505201851 63 -1 12.0 23.0 0.00 0.00 0.02 8 999.4
20260505201350 64 -1 9.0 19.0 0.00 0.00 0.01 7 999.3
20260505200849 69 -1 5.0 11.0 0.00 0.00 0.00 6 998.5
20260505200349 71 -1 4.0 7.0 0.00 0.00 0.00 6 998.0
20260505195848 72 -1 4.0 7.0 0.00 0.00 0.00 5 997.7
20260505195347 72 -1 3.0 4.0 0.00 0.00 0.00 5 997.4
20260505194846 72 -1 3.0 4.0 0.00 0.00 0.00 5 997.3
20260505194345 71 -1 0.0 0.0 0.00 0.00 0.00 5 997.1
20260505193845 69 -1 0.0 0.0 0.00 0.00 0.00 6 997.2
20260505193344 68 -1 0.0 0.0 0.00 0.00 0.00 6 997.2
20260505192843 68 -1 0.0 0.0 0.00 0.00 0.00 6 997.1
20260505192342 68 -1 0.0 0.0 0.00 0.00 0.00 6 997.1
20260505191842 68 -1 0.0 0.0 0.00 0.00 0.00 6 997.2
20260505191341 69 -1 3.0 5.0 0.00 0.00 0.00 6 997.0
20260505190840 68 -1 3.0 7.0 0.00 0.00 0.00 6 997.0
20260505190340 68 -1 3.0 5.0 0.00 0.00 0.00 6 997.0
20260505185839 69 -1 4.0 8.0 0.00 0.00 0.00 6 997.0
20260505185338 68 -1 4.0 7.0 0.00 0.00 0.00 6 997.0
20260505184839 69 -1 4.0 10.0 0.00 0.00 0.00 6 996.9
20260505184337 69 -1 3.0 7.0 0.00 0.00 0.00 6 996.8
20260505183836 69 -1 5.0 13.0 0.00 0.00 0.00 6 996.9
20260505183335 69 -1 4.0 8.0 0.00 0.00 0.00 6 997.0
20260505182834 70 -1 4.0 11.0 0.00 0.00 0.00 6 996.8
20260505182334 70 -1 4.0 7.0 0.00 0.00 0.00 5 996.8
20260505181833 69 -1 3.0 8.0 0.00 0.00 0.00 6 996.9
20260505181332 70 -1 4.0 8.0 0.00 0.00 0.00 5 996.9
20260505180831 69 -1 4.0 11.0 0.00 0.00 0.00 6 996.9
20260505180331 70 -1 6.0 15.0 0.00 0.00 0.00 5 996.7
20260505175830 71 -1 5.0 11.0 0.00 0.00 0.00 5 996.6
20260505175329 70 -1 6.0 13.0 0.00 0.00 0.00 5 996.8
20260505174828 71 -1 5.0 15.0 0.00 0.00 0.00 5 996.9
20260505174328 71 -1 5.0 16.0 0.00 0.00 0.00 5 996.6
20260505173827 71 -1 5.0 12.0 0.00 0.00 0.00 5 996.8
20260505173326 71 -1 5.0 14.0 0.00 0.00 0.00 5 996.7
20260505172825 70 -1 6.0 15.0 0.00 0.00 0.00 5 996.8
20260505172325 71 -1 4.0 13.0 0.00 0.00 0.00 5 996.7
20260505171824 71 -1 5.0 12.0 0.00 0.00 0.00 5 996.8
20260505171323 72 -1 4.0 10.0 0.00 0.00 0.00 5 996.6
20260505170822 72 -1 5.0 10.0 0.00 0.00 0.00 5 996.7
20260505170322 72 -1 5.0 14.0 0.00 0.00 0.00 5 996.6
20260505165821 73 -1 6.0 14.0 0.00 0.00 0.00 5 996.5
20260505165320 72 -1 6.0 16.0 0.00 0.00 0.00 5 996.6
20260505164819 73 -1 6.0 12.0 0.00 0.00 0.00 5 996.5
20260505164319 72 -1 5.0 14.0 0.00 0.00 0.00 5 996.6
20260505163818 73 -1 5.0 17.0 0.00 0.00 0.00 5 996.5
20260505163317 73 -1 4.0 11.0 0.00 0.00 0.00 5 996.6
20260505162817 75 -1 5.0 10.0 0.00 0.00 0.00 4 996.3
20260505162316 77 -1 4.0 10.0 0.00 0.00 0.00 4 996.0
20260505161815 76 -1 4.0 9.0 0.00 0.00 0.00 4 996.1
20260505161314 76 -1 5.0 13.0 0.00 0.00 0.00 4 996.2
20260505160813 76 -1 5.0 12.0 0.00 0.00 0.00 4 996.2
20260505160313 77 -1 5.0 11.0 0.00 0.00 0.00 4 996.1
20260505153308 81 -1 5.0 13.0 0.00 0.00 0.00 3 995.6
20260505152807 81 -1 5.0 10.0 0.00 0.00 0.00 3 995.6
20260505152307 81 -1 5.0 10.0 0.00 0.00 0.00 3 995.5
20260505151806 81 -1 5.0 12.0 0.00 0.00 0.00 3 995.5
20260505151305 83 -1 7.0 15.0 0.00 0.00 0.00 3 995.2
20260505150805 85 -1 9.0 17.0 0.00 0.00 0.00 2 994.8
20260505150304 82 -1 6.0 11.0 0.00 0.00 0.00 3 995.3
20260505140255 83 -1 4.0 8.0 0.00 0.00 0.00 2 996.1
20260505130246 88 -1 5.0 10.0 0.00 0.00 0.00 2 995.5
20260505124744 85 -1 6.0 12.0 0.00 0.00 0.00 2 996.3
20260505124243 84 -1 6.0 11.0 0.00 0.00 0.00 2 996.4
20260505123743 83 -1 6.0 13.0 0.00 0.00 0.00 2 996.6
20260505123242 84 -1 5.0 9.0 0.00 0.00 0.00 2 996.5
20260505122741 83 -1 7.0 13.0 0.00 0.00 0.00 3 996.8
20260505122241 84 -1 5.0 12.0 0.00 0.00 0.00 2 996.6
20260505121740 85 -1 4.0 9.0 0.00 0.00 0.00 3 996.6
20260505121239 84 -1 6.0 14.0 0.00 0.00 0.00 2 996.7
20260505120738 85 -1 7.0 15.0 0.00 0.00 0.00 2 996.6
20260505120238 84 -1 6.0 14.0 0.00 0.00 0.00 3 996.8
20260505115737 86 -1 5.0 9.0 0.00 0.00 0.00 2 996.5
20260505115236 84 -1 6.0 15.0 0.00 0.00 0.00 3 997.0
20260505114736 84 -1 5.0 15.0 0.00 0.00 0.00 2 996.8
20260505114235 84 -1 4.0 6.0 0.00 0.00 0.00 3 996.9
20260505113734 84 -1 4.0 8.0 0.00 0.00 0.00 2 997.0
20260505113233 84 -1 5.0 12.0 0.00 0.00 0.00 2 997.0
20260505112733 84 -1 7.0 15.0 0.00 0.00 0.00 2 997.1
20260505112232 84 -1 6.0 14.0 0.00 0.00 0.00 2 997.0
20260505111731 84 -1 5.0 11.0 0.00 0.00 0.00 2 997.1
20260505111231 83 -1 6.0 11.0 0.00 0.00 0.00 3 997.4
20260505110730 84 -1 5.0 14.0 0.00 0.00 0.00 2 997.2
20260505110229 86 -1 5.0 11.0 0.00 0.00 0.00 3 996.9
20260505101723 81 -1 6.0 12.0 0.00 0.00 0.00 3 998.1
20260505101222 83 -1 6.0 12.0 0.00 0.00 0.00 3 997.8
20260505100721 82 -1 5.0 11.0 0.00 0.00 0.00 3 998.0
20260505100220 82 -1 5.0 9.0 0.00 0.00 0.00 3 998.0
20260505095720 82 -1 5.0 10.0 0.00 0.00 0.00 3 998.1
20260505095219 80 -1 4.0 9.0 0.00 0.00 0.00 3 998.3
20260505094718 80 -1 4.0 7.0 0.00 0.00 0.00 3 998.5
20260505094218 79 -1 5.0 11.0 0.00 0.00 0.00 3 998.8
20260505093717 79 -1 5.0 9.0 0.00 0.00 0.00 3 998.7
20260505093216 81 -1 6.0 13.0 0.00 0.00 0.00 3 998.4
20260505092715 79 -1 4.0 8.0 0.00 0.00 0.00 3 998.7
20260505092215 77 -1 5.0 10.0 0.00 0.00 0.00 4 999.1
20260505091714 77 -1 6.0 11.0 0.00 0.00 0.00 4 999.1
20260505091213 78 -1 10.0 13.0 0.00 0.00 0.00 4 999.0
20260505090712 78 -1 0.0 0.0 0.00 0.00 0.00 3 998.9
20260505090212 77 -1 0.0 0.0 0.00 0.00 0.00 4 999.2
20260505085711 77 -1 0.0 0.0 0.00 0.00 0.00 4 999.3
20260505085210 77 -1 0.0 0.0 0.00 0.00 0.00 4 999.2
20260505084710 77 -1 0.0 0.0 0.00 0.00 0.00 4 999.3
20260505084209 77 -1 0.0 0.0 0.00 0.00 0.00 4 999.5
20260505083708 76 -1 0.0 0.0 0.00 0.00 0.00 4 999.5
20260505083207 77 -1 0.0 0.0 0.00 0.00 0.00 4 999.3
20260505082707 77 -1 0.0 0.0 0.00 0.00 0.00 4 999.4
20260505082208 77 -1 0.0 0.0 0.00 0.00 0.00 4 999.4
20260505081705 78 -1 0.0 0.0 0.00 0.00 0.00 3 999.3
20260505081205 79 -1 0.0 0.0 0.00 0.00 0.00 3 999.0
20260505080704 79 -1 0.0 0.0 0.00 0.00 0.00 3 999.0
20260505080203 78 -1 0.0 0.0 0.00 0.00 0.00 4 999.2
20260505075702 80 -1 0.0 0.0 0.00 0.00 0.00 4 999.0
20260505075202 77 -1 0.0 0.0 0.00 0.00 0.00 4 999.5
20260505074701 77 -1 0.0 0.0 0.00 0.00 0.00 4 999.4
20260505074200 78 -1 0.0 0.0 0.00 0.00 0.00 4 999.4
20260505073700 75 -1 0.0 0.0 0.00 0.00 0.00 4 999.8
20260505073159 77 -1 0.0 0.0 0.00 0.00 0.00 4 999.6
20260505072658 75 -1 0.0 0.0 0.00 0.00 0.00 4 1000.0
20260505072157 74 -1 0.0 0.0 0.00 0.00 0.00 4 1000.2
20260505071656 73 -1 0.0 0.0 0.00 0.00 0.00 4 1000.4
20260505071156 74 -1 0.0 0.0 0.00 0.00 0.00 4 1000.2
20260505070655 73 -1 0.0 0.0 0.00 0.00 0.00 4 1000.4